Tracking 25953 objects as of 16-Aug-2022
HD Live streaming from Space Station
objects crossing your sky now

STARLINK-4261

Track STARLINK-4261 now!
10-day predictions
STARLINK-4261 is classified as:


NORAD ID: 52868
Int'l Code: 2022-062AQ
Perigee: 422.5 km
Apogee: 424.3 km
Inclination: 53.2 °
Period: 92.9 minutes
Semi major axis: 6794 km
RCS: Unknown
Launch date: June 17, 2022
Source: United States (US)
Launch site: AIR FORCE EASTERN TEST RANGE (AFETR)
aabbcc
Your satellite tracking list
Your tracking list is empty




NASA's NSSDC Master Catalog

Two Line Element Set (TLE):
1 52868U 22062AQ  22227.91667824 -.00382534  00000-0 -69963-2 0  9991
2 52868  53.2173 111.8567 0001293  48.0907 118.5567 15.50165364  9833
Source of the keplerian elements: AFSPC